User: anonymous   Login
Location: Ashtead
(51.3000°N, 0.3000°W)
Time: 02:25:17
(UTC+00:00)
Language:

Cosmos 292 Rocket - Orbit

View from above orbital plane
View from above orbital plane
View from above satellite
View from above satellite

Ground track
Ground track

The orbit data is extracted from the following two-line orbital elements,

1 04071U 69070B   24062.54679882  .00000716  00000-0  14130-3 0  9993
2 04071  74.0471 106.5306 0013957 181.8159 178.2961 14.64326514896155
Epoch (UTC): 02 March 2024 13:07:23
Eccentricity: 0.0013957
inclination: 74.0471°
perigee height: 669 km
apogee height: 689 km
right ascension of ascending node: 106.5306°
argument of perigee: 181.8159°
revolutions per day: 14.64326514
mean anomaly at epoch: 178.2961°
orbit number at epoch: 89615

The dashed part of the orbit path shows where the satellite is in the earth's shadow,  

DLR